Flag for Belgium Weather past 2 weeks in Antwerp, Belgium

Now
59 °F

Passing clouds.


Feels Like: 57 °F
Forecast: 48 / 68 °F
Wind: 9 mph from Northwest

Location: Antwerp / Deurne

Current Time: Jul 30, 2015 at 6:22:21 PM

Latest Report: Jul 30, 2015 at 5:50 PM


Visibility: N/A

Pressure: 30.07 "Hg

Humidity: 72%

Dew point: 50 °F

Location of AntwerpLocation

Historic Weather in Antwerp — Graph

°F

Antwerp temperature yesterday

Maximum temperature yesterday: 66 °F (at 3:20 PM)
Minimum temperature yesterday: 54 °F (at 4:20 AM)
Average temperature yesterday: 60 °F

Past Weeks' High & Low Weather Summary

 TemperatureHumidityPressure
High81 °F (Jul 16, 4:50 PM)94% (Jul 16, 3:50 AM)30.12 "Hg (Jul 16, 3:50 AM)
Low52 °F (Jul 20, 4:50 AM)38% (Jul 18, 3:50 PM)29.47 "Hg (Jul 25, 4:50 AM)
Average65 °F69%29.88 "Hg
* Reported Jul 15 4:20 PM — Jul 30 4:50 PM, Antwerp, Weather by CustomWeather, © 2015

Note: Actual official high and low records may vary slightly from our data, if they occured in-between our weather recording intervals... More about our weather records

Advertising

Antwerp weather history for previous 24 hours

 ConditionsComfort  
Time TempWeatherWind HumidityBarometerVisibility
4:50 PM
Thu, Jul 30
59 °FPassing clouds.12 mph68%30.07 "HgN/A
4:20 PM59 °FPassing clouds.13 mph68%30.07 "HgN/A
3:50 PM59 °FSprinkles. Passing clouds.8 mph72%30.04 "HgN/A
3:20 PM59 °FPassing clouds.10 mph72%30.04 "HgN/A
2:50 PM59 °FSprinkles. Passing clouds.14 mph72%30.04 "Hg6 mi
2:20 PM63 °FPassing clouds.6 mph64%30.04 "HgN/A
1:50 PM61 °FPassing clouds.5 mph68%30.04 "HgN/A
1:20 PM59 °FPassing clouds.5 mph72%30.04 "HgN/A
12:50 PM57 °FPartly sunny.5 mph82%30.04 "HgN/A
12:20 PM55 °FSprinkles. Broken clouds.9 mph77%30.04 "Hg5 mi
11:50 AM57 °FSprinkles. Passing clouds.9 mph77%30.01 "HgN/A
11:20 AM57 °FSprinkles. Partly sunny.8 mph77%30.01 "HgN/A
10:50 AM57 °FPartly sunny.9 mph82%30.01 "HgN/A
10:20 AM57 °FPassing clouds.8 mph82%30.01 "HgN/A
9:50 AM57 °FPassing clouds.7 mph82%29.98 "HgN/A
9:20 AM57 °FSunny.7 mph77%29.98 "Hg10 mi
8:50 AM55 °FSunny.6 mph82%29.98 "Hg10 mi
8:20 AM55 °FSunny.6 mph82%29.98 "Hg10 mi
7:50 AM55 °FSunny.5 mph82%29.98 "Hg10 mi
7:20 AM54 °FSunny.7 mph82%29.98 "Hg10 mi
6:50 AM54 °FPassing clouds.6 mph88%29.95 "HgN/A
6:20 AM54 °FPassing clouds.7 mph82%29.95 "HgN/A
5:50 AM54 °FClear.3 mph82%29.95 "Hg10 mi
5:20 AM54 °FSprinkles. Overcast.5 mph82%29.95 "HgN/A
4:50 AM54 °FLight rain. Passing clouds.5 mph88%29.95 "HgN/A
4:20 AM54 °FLight rain. Overcast.6 mph82%29.95 "HgN/A
3:50 AM55 °FPassing clouds.7 mph77%29.95 "HgN/A
3:20 AM55 °FClear.6 mph77%29.95 "Hg10 mi
2:50 AM55 °FSprinkles. Passing clouds.6 mph82%29.95 "HgN/A
2:20 AM55 °FClear.8 mph77%29.95 "Hg10 mi
1:50 AM57 °FSprinkles. Partly cloudy.8 mph72%29.95 "HgN/A
1:20 AM57 °FSprinkles. Passing clouds.7 mph72%29.95 "HgN/A
12:50 AM57 °FDrizzle. Mostly cloudy.8 mph77%29.95 "HgN/A
12:20 AM59 °FClear.8 mph68%29.95 "Hg10 mi
11:50 PM
Wed, Jul 29
59 °FClear.7 mph68%29.92 "Hg10 mi
11:20 PM59 °FPassing clouds.7 mph68%29.92 "HgN/A
10:50 PM61 °FClear.7 mph63%29.92 "Hg10 mi
10:20 PM61 °FSunny.7 mph59%29.92 "Hg10 mi
9:50 PM61 °FSunny.7 mph59%29.92 "Hg10 mi
9:20 PM63 °FSunny.9 mph52%29.92 "Hg10 mi
8:50 PM63 °FSunny.13 mph49%29.89 "Hg10 mi
8:20 PM64 °FSunny.14 mph49%29.89 "Hg10 mi
7:50 PM64 °FSunny.15 mph46%29.89 "Hg10 mi
7:20 PM64 °FPassing clouds.15 mph49%29.89 "HgN/A
6:50 PM64 °FPassing clouds.15 mph49%29.86 "HgN/A
6:20 PM64 °FScattered clouds.14 mph46%29.86 "HgN/A
Weather by CustomWeather, © 2015

See weather overviewHow to use our weather pages